Regional Weather Roundup
Issued by NWS Memphis, TN

Home | Current Version | Previous Version | Text Only | Print | Product List | Glossary On
Versions: 1 2 3 4 5 6 7 8 9 10 11 12 13 14 15 16 17 18 19 20 21 22 23 24 25 26 27 28 29 30 31 32 33 34 35 36 37 38 39 40 41 42 43 44 45 46 47 48 49 50
000
ASUS44 KMEG 071110
RWRMEG
MEMPHIS CWA HOURLY WEATHER ROUNDUP
NATIONAL WEATHER SERVICE MEMPHIS TN
600 AM CDT TUE JUL 07 2015

...WEST TENNESSEE...

CITY           SKY/WX    TMP DP  RH WIND       PRES   REMARKS
MEMPHIS INTL   PTCLDY    78  73  84 S8        30.03R
NWS MEMPHIS      N/A     76 N/A N/A MISG        N/A
JACKSON        CLEAR     75  72  90 S7        30.03R
LEXINGTON      CLEAR     70  70 100 S5        30.04S
DYERSBURG        N/A    N/A N/A N/A MISG        N/A
PARIS          CLEAR     70  68  94 S8        30.03R


...EASTERN ARKANSAS...

CITY           SKY/WX    TMP DP  RH WIND       PRES   REMARKS
JONESBORO      MOCLDY    76  74  93 SW9       29.97S
WEST MEMPHIS   PTCLDY    74  74 100 S6        30.00S
BATESVILLE     PTCLDY    75  72  88 CALM      29.97S
NEWPORT        MOCLDY    77  75  93 S12       29.98S
WALNUT RIDGE   CLOUDY    77  73  88 S12       29.96R
BLYTHEVILLE    CLEAR     77  75  93 SW12      29.99R
SEARCY         MOCLDY    76  73  91 S8        30.00R
STUTTGART      MOCLDY    75  72  88 MISG      30.00R
PINE BLUFF     PTCLDY    75  73  93 S9        30.02R
MONTICELLO     PTCLDY    76  76 100 S8        30.03R


...NORTH MISSISSIPPI...

CITY           SKY/WX    TMP DP  RH WIND       PRES   REMARKS
TUPELO         PTCLDY    73  70  90 S7        30.08R
OXFORD         CLEAR     73  72  94 S6        30.08R
OLIVE BRANCH     N/A     73 N/A N/A S8        30.04S
TUNICA         CLEAR     75  72  88 S8        30.03S
CLARKSDALE     CLEAR     75  75 100 S6        30.04S
CORINTH        CLEAR     73  72  94 S6        30.06R
GREENWOOD      CLEAR     75  72  90 S7        30.07R
COLUMBUS       CLEAR     74  73  95 S3        30.09R
STARKVILLE     FAIR      72  70  94 S3        30.10R FOG
GOLDEN TRIANGL PTCLDY    75  70  83 SW5       30.09S


...SOUTHEAST MISSOURI...

CITY           SKY/WX    TMP DP  RH WIND       PRES   REMARKS
WEST PLAINS    CLOUDY    75  71  87 SW7       29.97S
POPLAR BLUFF   CLOUDY    77  75  93 SW10      29.94R
CAPE GIRARDEAU CLOUDY    75  73  93 S8        29.95R


...NORTHWEST ALABAMA...

CITY           SKY/WX    TMP DP  RH WIND       PRES   REMARKS
MUSCLE SHOALS  CLEAR     73  70  90 S5        30.10S


...MIDDLE TENNESSEE...

CITY           SKY/WX    TMP DP  RH WIND       PRES   REMARKS
NASHVILLE      MOCLDY    75  72  90 S8        30.07R
CLARKSVILLE    LGT RAIN  73  71  93 S8        30.02S
COLUMBIA       CLEAR     75  75 100 SW7       30.06S


...WESTERN KENTUCKY...

CITY           SKY/WX    TMP DP  RH WIND       PRES   REMARKS
PADUCAH        CLOUDY    74  71  91 SW8G17    29.97R
FORT CAMPBELL  CLOUDY    73  72  94 SW10      30.01F


...CENTRAL ARKANSAS...

CITY           SKY/WX    TMP DP  RH WIND       PRES   REMARKS
LITTLE ROCK    PTCLDY    76  71  85 S10       30.00R


SKY/WX REPORTED AS FAIR MEANS FEW OR NO CLOUDS BELOW
12 THOUSAND FEET.




USA.gov is the U.S. government's official web portal to all federal, state and local government web resources and services.